Strona główna
METAR-TAF:

METAR-TAF

Lotnisko :

Normanton, Australia

Szerokość geograficzna: 17-41-06S, Długość geograficzna: 141-04-12E, wysokość: 22 m

Aktualna obserwacja pogody

Raport powstał 30 minut temu, godzina 06:00 UTC
Wiatr 11 kt od północny zachód
Temperatura 34°C
Wilgotność 60%
Ciśnienie 1005 hPa
Widzialność 10 km lub więcej

METAR: YNTN 280600Z AUTO 31011KT 9999 // ////// 34/25 Q1005

czas: 16:30 (06:30 UTC)


TAF: brakujący

Obserwacja i prognoza pogody dla ponad 4000 lotnisk (raport METAR i TAF).

Dostępne stacje oznaczono żółtymi i czerwonymi punktami na mapie.

Najedź kursorem aby zobaczyć nazwę stacji.

Kliknij aby zobaczyć obserwacje i prognozy pogody.

Aby zmienić mapę: kliknij na zielony przycisk z czarnym krzyżykiem, aby powiększyć; na zielony przycisk z myślnikiem, aby pomniejszyć; na zielone strzałki, aby przejść do map sąsiednich.


METAR-TAF: